Probability
0 0 0 0 0 0 0 0 0 0 0 0 0 0 0 0 0 0 0 0 0 0 0 0 0 0 0 0 0 0 0 0 0 0 0 0 0 0
0 0 0 0 0 0 0 0 0 0 0 0 0 0 0 0 0 0 0 0 0 0 0 0 0 0 0 0 0 0 0 0 0 0 0 0 0 0
0 0 0 0 0 0 0 0 0 0 0 0 0 0 0 0 0 0 0 0 0 0 0 0 0 0 0 0 0 0 0 0 0 0 0 0 0 0
0 0 0 0 0 0 0 0 0 0 0 0 0 0 0 0 0 0 0 0 0 0 0 0 0 0 0 0 0 0 0 0 0 0 0 0 0 0
0 0 0 0 0 0 0 0 0 0 0 0 0 0 0 0 0 0 0 0 0 0 0 0 0 0 0 0 0 0 0 0 0 0 0 0 0 0
0 0 0 0 0 0 0 0 0 0 0 0 0 0 0 0 0 0 0 0 0 0 0 0 0 0 0 0 0 0 0 0 0 0 0 0 0 0
0 0 0 0 0 0 0 0 0 0 0 0 0 0 0 0 0 0 0 0 0 0 0 0 0 0 0 0 0 0 0 0 0 0 0 0 0 0
0 0 0 0 0 0 0 0 0 0 0 0 0 0 0 0 0 0 0 0 0 0 0 0 0 0 0 0 0 0 0 0 0 0 0 0 0 0
0 0 0 0 0 0 0 0 0 0 0 0 0 0 0 0 0 0 0 0 0 0 0 0 0 0 0 0 0 0 0 0 0 0 0 0 0 0
0 0 0 0 0 0 0 0 0 0 0 0 0 0 0 0 0 0 0 0 0 0 0 0 0 0 0 0 0 0 0 0 0 0 0 0 0 0
0 0 0 0 0 0 0 0 0 0 0 0 0 0 0 0 0 0 0 0 0 0 0 0 0 0 0 0 0 0 0 0 0 0 0 0 0 0
0 0 0 0 0 0 0 0 0 0 0 0 0 0 0 0 0 0 0 0 0 0 0 0 0 0 0 0 0 0 0 0 0 0 0 0 0 0
0 0 0 0 0 0 0 0 0 0 0 0 0 0 0 0 0 0 0 0 0 0 0 0 0 0 0 0 0 0 0 0 0 0 0 0 0 0
0 0 0 0 0 0 0 0 0 0 0 0 0 0 0 0 0 0 0 0 0 0 0 0 0 0 0 0 0 0 0 0 0 0 0 0 0 0
0 0 0 0 0 0 0 0 0 0 0 0 0 0 0 0 0 0 0 0 0 0 0 0 0 0 0 0 0 0 0 0 0 0 0 0 0 0
0 0 0 0 0 0 0 0 0 0 0 0 0 0 0 0 0 0 0 0 0 0 0 0 0 0 0 0 0 0 0 0 0 0 0 0 0 0
0 0 0 0 0 0 0 0 0 0 0 0 0 0 0 0 0 0 0 0 0 0 0 0 0 0 0 0 0 0 0 0 0 0 0 0 0 0
0 0 0 0 0 0 0 0 0 0 0 0 0 0 0 0 0 0 0 0 0 0 0 0 0 0 0 0 0 0 0 0 0 0 0 0 0 0
0 0 0 0 0 0 0 0 0 0 0 0 0 0 0 0 0 0 0 0 0 0 0 0 0 0 0 0 0 0 0 0 0 0 0 0 0 0
0 0 0 0 0 0 0 0 0 0 0 0 0 0 0 0 0 0 0 0 0 0 0 0 0 0 0 0 0 0 0 0 0 0 0 0 0 0
0 0 0 0 0 0 0 0 0 0 0 0 0 0 0 0 0 0 0 0 0 0 0 0 0 0 0 0 0 0 0 0 0 0 0 0 0 0
0 0 0 0 0 0 0 0 0 0 0 0 0 0 0 0 0 0 0 0 0 0 0 0 0 0 0 0 0 0 0 0 0 0 0 0 0 0
0 0 0 0 0 0 0 0 0 0 0 0 0 0 0 0 0 0 0 0 0 0 0 0 0 0 0 0 0 0 0 0 0 0 0 0 0 0
Height
5656 5658 5660 5662 5663 5665 5667 5669 5671 5673 5676 5677 5678 5678 5678 5678 5678 5678 5679 5679 5678 5677 5676 5675 5674 5672 5671 5669 5668 5667 5665 5664 5662 5661 5659 5657 5654 5652
5644 5646 5647 5649 5651 5652 5654 5655 5656 5658 5660 5663 5663 5664 5664 5664 5664 5664 5664 5664 5663 5662 5661 5660 5659 5658 5656 5655 5653 5652 5651 5650 5648 5647 5645 5643 5640 5637
5631 5633 5635 5636 5638 5639 5640 5641 5642 5643 5645 5648 5648 5648 5648 5648 5648 5648 5648 5648 5647 5647 5646 5645 5643 5642 5641 5639 5638 5637 5636 5635 5634 5632 5630 5628 5625 5623
5619 5621 5622 5623 5625 5626 5627 5627 5628 5629 5630 5632 5633 5634 5634 5633 5633 5633 5632 5632 5632 5631 5630 5629 5627 5626 5624 5623 5623 5622 5621 5620 5618 5616 5615 5613 5610 5607
5608 5609 5609 5610 5611 5612 5613 5613 5614 5614 5614 5616 5618 5618 5618 5618 5617 5617 5617 5616 5616 5615 5614 5613 5611 5610 5609 5608 5607 5607 5606 5605 5604 5601 5599 5597 5594 5592
5596 5596 5596 5597 5597 5598 5598 5598 5599 5599 5600 5600 5602 5602 5603 5602 5602 5602 5602 5602 5601 5599 5598 5597 5596 5594 5594 5593 5592 5592 5590 5589 5587 5586 5584 5582 5579 5577
5585 5585 5585 5584 5583 5583 5584 5584 5584 5584 5584 5585 5586 5587 5587 5587 5587 5587 5587 5587 5586 5585 5584 5583 5581 5581 5579 5578 5577 5576 5575 5574 5573 5571 5569 5567 5565 5562
5575 5574 5573 5572 5571 5570 5570 5569 5568 5568 5569 5570 5570 5571 5572 5573 5572 5572 5572 5572 5573 5573 5570 5569 5567 5566 5565 5564 5563 5561 5560 5559 5558 5556 5555 5553 5551 5549
5564 5563 5562 5560 5558 5558 5556 5555 5554 5553 5554 5555 5555 5555 5557 5558 5559 5559 5558 5557 5557 5556 5555 5555 5553 5552 5551 5550 5548 5547 5546 5545 5543 5542 5540 5539 5537 5535
5553 5551 5550 5548 5546 5545 5543 5542 5541 5540 5540 5540 5541 5542 5541 5542 5543 5543 5543 5543 5543 5542 5540 5540 5540 5539 5538 5536 5535 5533 5532 5531 5529 5528 5526 5525 5523 5522
5543 5540 5538 5536 5534 5532 5530 5529 5528 5527 5526 5525 5526 5526 5527 5527 5528 5528 5528 5528 5529 5529 5527 5526 5526 5526 5525 5524 5522 5520 5519 5518 5516 5514 5513 5511 5510 5509
5532 5529 5527 5524 5521 5519 5517 5516 5515 5514 5514 5513 5513 5513 5513 5514 5514 5514 5514 5514 5514 5515 5514 5513 5513 5511 5512 5513 5511 5509 5507 5505 5503 5501 5500 5499 5497 5495
5522 5519 5515 5512 5510 5507 5505 5503 5502 5501 5501 5500 5500 5501 5501 5501 5501 5501 5500 5500 5501 5501 5501 5500 5499 5498 5498 5500 5499 5497 5495 5493 5490 5489 5487 5486 5484 5483
5512 5509 5505 5502 5499 5496 5494 5492 5491 5490 5489 5489 5488 5488 5489 5489 5489 5489 5488 5487 5488 5488 5487 5486 5486 5486 5486 5486 5486 5485 5483 5481 5479 5477 5476 5474 5472 5471
5502 5499 5496 5493 5490 5487 5485 5482 5480 5479 5478 5478 5477 5478 5478 5478 5478 5478 5477 5476 5476 5475 5474 5474 5474 5473 5473 5473 5473 5473 5471 5470 5467 5466 5464 5462 5461 5460
5492 5489 5486 5483 5480 5477 5475 5473 5471 5469 5468 5468 5467 5467 5467 5466 5466 5466 5466 5466 5465 5465 5464 5463 5462 5462 5462 5461 5460 5460 5460 5458 5457 5454 5453 5451 5450 5450
5483 5480 5477 5473 5471 5468 5465 5463 5461 5460 5458 5457 5457 5456 5456 5456 5455 5455 5454 5454 5454 5454 5454 5453 5452 5451 5450 5450 5449 5448 5447 5447 5446 5444 5443 5442 5441 5442
5473 5470 5467 5464 5461 5458 5456 5453 5451 5450 5449 5447 5447 5446 5446 5446 5445 5444 5443 5443 5442 5443 5442 5442 5441 5441 5440 5439 5438 5437 5437 5436 5435 5434 5433 5433 5433 5434
5461 5458 5456 5453 5450 5448 5445 5443 5442 5440 5439 5437 5436 5436 5435 5435 5434 5433 5432 5432 5432 5432 5431 5431 5430 5429 5429 5430 5429 5427 5427 5426 5425 5424 5424 5425 5426 5426
5450 5447 5444 5441 5439 5437 5435 5433 5431 5430 5428 5427 5426 5425 5425 5424 5423 5423 5422 5421 5421 5421 5421 5420 5420 5420 5420 5420 5419 5419 5418 5417 5416 5416 5417 5417 5418 5419
5438 5435 5433 5431 5428 5426 5424 5423 5421 5420 5418 5417 5416 5415 5414 5413 5413 5412 5412 5411 5411 5411 5411 5412 5412 5411 5410 5410 5409 5409 5409 5409 5409 5409 5410 5411 5412 5413
5427 5424 5422 5420 5418 5416 5414 5412 5411 5410 5409 5408 5406 5405 5404 5404 5403 5403 5402 5402 5402 5402 5402 5403 5402 5402 5401 5401 5401 5401 5401 5402 5402 5402 5403 5405 5406 5408
5416 5414 5411 5409 5407 5405 5403 5402 5401 5400 5399 5398 5397 5396 5395 5395 5394 5393 5393 5393 5393 5393 5393 5393 5393 5393 5393 5393 5393 5393 5394 5394 5395 5396 5397 5399 5401 5403
Wind_Speed
46 47 48 47 47 48 50 51 52 52 52 52 53 53 53 53 52 53 53 52 51 50 49 49 49 49 49 50 49 49 49 48 48 48 48 47 47 48
47 47 47 48 48 49 50 52 52 52 52 52 52 53 54 55 55 53 52 52 52 51 51 51 50 50 51 51 50 49 49 49 49 49 49 49 50 49
46 46 47 49 49 50 50 51 53 53 53 52 52 52 52 53 53 53 53 53 53 53 53 53 52 52 52 52 51 51 51 51 51 52 52 51 52 51
43 45 47 48 49 49 50 51 51 52 52 52 52 52 52 52 52 52 54 55 55 54 54 54 53 53 52 52 51 51 51 51 51 51 51 51 51 51
43 45 46 47 48 50 51 51 51 51 52 53 52 52 53 52 51 51 53 54 54 54 54 54 53 52 52 52 52 51 50 50 50 50 50 50 50 50
40 42 44 45 47 49 50 50 50 50 52 53 53 53 53 52 52 51 51 51 52 53 53 52 52 52 52 52 51 51 50 50 49 48 49 48 48 47
37 39 41 43 44 46 47 49 49 50 51 52 52 53 53 52 51 50 49 49 50 51 51 50 50 51 52 51 50 50 50 49 48 49 48 47 47 46
37 38 40 42 43 44 46 46 47 48 49 51 51 51 52 52 51 50 49 48 48 49 49 49 49 50 50 49 48 48 47 47 48 48 46 46 46 45
37 39 41 40 42 43 45 45 45 45 47 48 48 49 50 51 50 49 48 47 46 47 47 46 47 47 47 47 46 45 45 45 46 46 45 45 45 45
37 38 39 39 41 42 43 44 44 44 44 45 46 46 47 48 48 48 48 48 46 45 46 45 44 45 44 44 45 45 44 44 44 44 44 44 45 45
37 38 39 41 41 43 43 44 43 42 42 43 44 44 44 45 46 47 47 47 45 45 45 45 44 44 43 42 42 43 43 43 43 42 42 43 43 43
37 37 39 40 41 42 43 43 42 42 42 43 43 42 43 43 43 44 45 45 45 44 43 43 42 42 40 39 40 41 41 42 42 41 40 41 41 40
35 35 37 38 39 40 40 39 39 39 40 41 41 41 41 41 41 42 43 43 43 42 41 41 41 40 40 38 38 39 40 41 40 39 38 38 39 38
35 35 35 35 36 36 36 36 36 37 37 38 39 39 39 39 39 39 39 40 39 39 38 39 39 39 39 39 38 38 38 38 38 37 36 37 37 36
34 34 34 34 34 33 34 34 33 34 35 36 36 36 36 37 37 37 37 37 37 37 37 37 38 38 38 38 38 37 36 36 36 36 36 36 35 33
33 32 32 32 33 32 32 33 33 33 34 34 34 35 34 35 35 36 36 36 35 35 36 36 36 36 37 37 37 36 36 35 35 35 34 33 32 31
34 33 33 33 33 33 33 33 33 33 33 33 34 33 33 34 35 35 35 36 35 35 34 35 34 34 35 35 35 35 34 34 33 32 32 31 30 29
35 34 34 34 34 34 33 33 33 33 33 33 33 33 33 34 34 35 35 35 35 35 34 34 33 33 33 32 33 33 33 32 31 31 31 30 28 27
37 37 36 36 35 34 34 33 34 33 33 33 32 32 33 33 34 34 34 33 34 34 34 33 32 32 32 31 30 31 30 29 28 28 27 27 26 25
38 37 36 36 35 34 34 34 34 33 32 32 32 32 33 33 33 33 33 32 32 32 32 31 31 31 30 29 28 28 28 27 26 25 24 24 23 23
37 36 36 36 35 35 34 34 33 32 32 32 32 32 32 32 32 32 31 31 30 30 30 29 29 28 28 27 26 26 25 24 23 23 23 23 22 22
36 36 35 35 35 34 34 33 32 32 31 31 31 31 31 31 30 30 30 30 29 29 28 28 28 27 27 26 25 24 23 22 21 21 21 22 21 20
35 35 35 34 34 34 33 33 32 32 31 31 30 30 30 30 29 29 29 28 28 27 27 26 26 26 25 24 23 22 21 21 21 20 19 19 19 19
Wind_Direction
257 257 257 258 259 261 261 261 262 261 259 261 263 263 264 264 267 268 269 270 272 273 274 274 274 275 275 277 277 276 277 277 278 279 280 281 282 282
257 258 258 259 260 262 263 262 262 262 261 262 263 264 265 267 267 268 270 271 273 273 273 274 275 276 276 276 275 275 277 278 279 279 280 282 282 282
260 260 260 259 260 263 264 264 264 264 265 265 264 265 267 267 269 271 272 272 274 274 274 275 275 276 277 275 274 274 276 277 278 279 280 281 281 280
262 262 262 261 262 264 265 267 267 266 266 266 265 267 269 270 271 272 272 272 272 273 274 275 275 276 276 274 273 274 275 278 279 280 281 280 280 280
265 264 265 263 264 265 266 267 267 268 267 266 266 267 267 270 272 272 272 272 272 273 274 274 275 276 276 275 275 275 275 278 279 280 280 279 279 279
269 267 267 266 266 267 268 268 268 268 268 268 267 267 268 270 271 272 273 272 272 273 273 274 274 275 276 277 276 275 275 277 279 280 280 279 279 279
273 270 270 269 268 269 269 269 268 267 268 269 269 268 269 270 272 273 274 273 273 274 273 274 274 274 276 277 275 274 275 277 278 279 280 279 279 279
274 273 273 273 271 271 271 271 271 270 270 271 270 270 269 270 271 273 273 274 273 274 275 274 274 274 275 276 276 275 275 276 276 278 278 278 278 278
279 277 276 276 274 272 272 272 273 273 272 272 271 271 270 270 271 271 272 274 276 276 275 274 274 274 274 275 276 276 276 277 278 278 277 277 277 277
284 281 279 279 277 276 275 274 274 274 273 273 272 271 271 270 270 271 271 272 275 276 275 273 274 274 275 275 275 276 277 279 280 280 279 277 276 277
288 284 281 280 279 279 278 276 275 274 274 273 271 271 271 271 271 271 272 272 274 275 275 274 274 274 273 274 275 276 277 279 281 281 279 278 277 276
289 286 283 283 280 279 279 276 274 274 273 274 273 272 272 273 274 274 275 274 274 276 275 273 273 274 272 273 275 276 278 279 281 280 280 279 278 276
292 289 286 284 282 281 280 278 276 274 274 274 272 271 272 273 274 276 277 276 276 277 275 274 274 274 274 274 275 277 279 281 281 280 279 278 276 274
293 292 290 288 286 283 281 279 278 276 275 275 273 272 273 274 274 276 277 277 277 278 276 275 276 275 275 274 275 277 280 281 280 279 278 278 277 274
294 293 291 289 288 286 284 282 280 278 276 276 276 275 275 276 276 275 275 276 276 279 278 277 277 277 277 277 277 277 278 279 279 278 278 277 274 270
295 293 293 293 291 289 288 285 283 282 281 280 279 278 276 276 275 275 274 273 274 276 278 278 278 278 277 277 277 277 278 278 277 276 277 275 270 266
295 292 292 292 292 291 290 288 287 285 285 284 281 279 277 277 277 276 275 274 274 275 275 277 278 278 277 277 278 278 279 279 277 275 274 271 268 265
295 293 292 291 290 290 289 288 287 286 284 283 281 279 278 278 279 278 276 276 275 275 276 278 278 276 277 277 278 278 277 277 276 274 271 268 265 264
294 292 291 291 290 289 288 288 287 286 285 284 282 281 280 280 280 280 278 277 276 275 276 278 278 277 276 277 277 277 276 275 273 271 269 266 265 262
293 291 290 290 290 288 287 287 287 286 285 285 283 282 282 281 281 280 279 277 276 276 276 278 278 277 276 276 277 277 276 275 271 268 265 263 262 258
292 290 289 289 289 288 287 287 286 284 284 284 283 283 283 283 282 280 279 279 277 276 275 276 277 276 275 275 275 275 275 273 268 265 261 258 256 254
293 291 290 290 289 288 286 286 285 284 284 284 284 284 283 282 281 280 279 278 277 277 275 276 276 276 276 276 274 274 273 270 266 262 257 252 250 248
293 292 291 290 289 288 287 285 284 283 283 283 285 285 284 282 282 281 279 278 277 276 275 275 276 277 276 275 272 270 269 266 262 260 257 252 247 246